CST,Max TemperatureF,Mean TemperatureF,Min TemperatureF,Max Dew PointF,MeanDew PointF,Min DewpointF,Max Humidity, Mean Humidity, Min Humidity, Max Sea Level PressureIn, Mean Sea Level PressureIn, Min Sea Level PressureIn, Max VisibilityMiles, Mean VisibilityMiles, Min VisibilityMiles, Max Wind SpeedMPH, Mean Wind SpeedMPH, Max Gust SpeedMPH,PrecipitationIn, CloudCover, Events, WindDirDegrees
2013-12-1,35,26,17,25,22,16,93,80,65,30.16,30.05,29.85,10,9,7,10,5,,0.00,5,,106
2013-12-2,44,37,28,36,30,25,100,84,66,29.84,29.61,29.49,10,8,3,16,8,20,0.01,3,,159
2013-12-3,33,30,28,34,32,28,100,99,93,29.72,29.64,29.56,2,1,0,17,10,18,0.05,8,Fog-Snow,337
2013-12-4,32,19,6,32,23,1,100,94,79,29.83,29.63,29.52,10,4,0,31,10,34,0.00,7,Snow,318
2013-12-5,6,0,-7,1,-4,-11,85,78,72,30.34,30.11,29.83,10,10,5,23,17,28,0.00,2,,265
2013-12-6,-2,-8,-14,-9,-14,-18,84,77,71,30.61,30.47,30.33,10,10,10,12,7,,0.00,0,,264
2013-12-7,1,-9,-18,-6,-14,-24,84,78,66,30.66,30.58,30.45,10,10,4,9,4,,0.00,1,Snow,242
2013-12-8,12,4,-5,9,4,-8,92,86,78,30.43,30.14,30.02,10,4,1,13,7,17,0.00,7,Snow,130
2013-12-9,10,0,-9,7,-8,-15,92,79,66,30.12,30.02,29.78,10,9,4,23,11,30,0.00,1,Snow,238
2013-12-10,17,8,0,16,5,-6,93,81,72,30.27,30.01,29.76,10,6,1,29,16,38,0.00,5,Snow,255
2013-12-11,8,-4,-13,3,-9,-18,85,77,66,30.54,30.41,30.22,10,10,10,20,13,26,0.00,0,,245
2013-12-12,23,16,8,18,11,3,100,84,68,30.25,30.17,30.06,10,10,5,21,9,34,0.00,3,,227
2013-12-13,17,12,6,12,10,5,93,88,79,30.19,30.08,30.02,10,10,7,18,8,22,0.00,3,,33
2013-12-14,12,6,1,9,5,-2,92,86,78,30.19,30.14,30.08,10,8,2,16,10,,0.00,6,Snow,317
2013-12-15,5,2,0,1,-2,-6,85,81,72,30.10,30.06,30.01,10,8,1,16,9,,0.00,7,Snow,13
2013-12-16,26,16,5,21,12,1,93,88,79,30.01,29.96,29.90,10,10,5,18,9,,0.00,4,Snow,211
2013-12-17,32,22,12,28,19,10,93,79,64,30.11,30.06,29.97,10,10,2,25,16,33,0.00,2,Snow,268
2013-12-18,37,26,15,30,22,12,100,79,64,30.02,29.74,29.65,10,10,10,21,9,26,0.10,0,,203
2013-12-19,26,17,8,23,9,5,93,86,79,29.98,29.93,29.83,10,10,7,24,18,28,0.00,5,Snow,356
2013-12-20,12,9,6,10,7,3,92,88,79,29.96,29.90,29.81,10,9,4,21,13,21,0.00,8,Snow,327
2013-12-21,17,9,1,16,9,0,100,91,85,29.93,29.87,29.80,10,8,1,23,5,26,0.00,8,Snow,350
2013-12-22,6,0,-5,3,-3,-9,92,84,78,30.29,30.08,29.92,10,7,2,26,19,26,0.00,6,Snow,309
2013-12-23,-4,-10,-16,-11,-17,-24,84,69,60,30.48,30.41,30.28,10,10,7,22,16,30,0.00,1,,293
2013-12-24,17,-2,-18,16,-5,-24,93,75,50,30.42,30.20,30.06,10,8,0,24,7,30,0.00,4,Snow,166
2013-12-25,30,22,14,27,19,10,93,88,80,30.16,30.10,30.02,10,8,1,24,12,30,0.00,7,Snow,262
2013-12-26,32,24,17,27,22,16,93,85,75,30.16,30.07,30.01,10,10,10,14,7,,0.03,7,,233
2013-12-27,37,26,15,30,24,12,100,85,70,30.15,30.03,29.94,10,10,10,21,9,26,0.02,1,,224
2013-12-28,41,21,1,32,22,-2,100,81,65,30.08,29.83,29.64,10,7,0,41,13,47,0.00,2,Snow,232
2013-12-29,1,-8,-16,-2,-17,-22,85,71,59,30.33,30.24,30.09,10,9,1,39,24,48,0.00,1,Snow,311
2013-12-30,8,-2,-13,5,-5,-18,92,81,70,30.20,30.12,30.02,10,6,1,14,5,,0.00,6,Snow,156
2013-12-31,1,-4,-9,-4,-7,-15,85,81,71,30.29,30.22,30.17,10,7,1,13,7,16,0.00,7,Snow,4